KG5VSR Weather Reports


time (UTC)temp
F
wind
direction
speed
knots
gust
knots
rain 1hr
in
rain 24hr
in
rain mn
in
humidity
%
barometer
mb
20260506142244 55 325 0.0 0.9 0.00 0.00 0.00 88 1015.0
20260506135239 55 352 0.9 1.7 0.00 0.00 0.00 88 1014.1
20260506132238 55 96 1.7 2.6 0.00 0.00 0.00 86 1013.6
20260506125233 55 1 1.7 1.7 0.00 0.00 0.00 85 1013.7
20260506122229 56 348 3.5 4.3 0.00 0.00 0.00 83 1013.3
20260506115226 56 318 4.3 7.8 0.00 0.00 0.00 83 1013.0
20260506112222 57 295 2.6 2.6 0.00 0.00 0.00 81 1012.3
20260506105223 58 25 0.0 0.0 0.00 0.00 0.00 81 1011.6
20260506102219 59 326 0.9 0.9 0.00 0.00 0.00 81 1011.1
20260506095214 60 322 0.0 0.0 0.00 0.00 0.00 80 1010.8
20260506092211 59 357 0.9 0.9 0.00 0.00 0.00 80 1010.8
20260506085211 60 339 1.7 1.7 0.00 0.00 0.00 81 1010.4
20260506082208 61 321 0.9 1.7 0.00 0.00 0.00 81 1009.9
20260506072159 61 291 0.0 0.9 0.00 0.00 0.00 81 1010.2
20260506062154 62 333 2.6 2.6 0.00 0.00 0.00 82 1010.1
20260506042148 68 333 2.6 4.3 0.00 0.32 0.32 81 1009.5
20260506035149 70 333 1.7 1.7 0.00 0.32 0.32 81 1009.0
20260506032148 71 346 2.6 4.3 0.00 0.32 0.32 81 1008.7
20260506025148 72 347 0.0 0.9 0.00 0.32 0.32 81 1007.8
20260506022147 68 137 0.0 0.9 0.00 0.32 0.32 95 1006.9
20260506015143 68 5 0.0 0.0 0.00 0.32 0.32 98 1006.5
20260506012141 70 337 0.0 0.9 0.00 0.32 0.32 99 1006.4
20260506005136 76 319 0.0 0.0 0.00 0.32 0.32 99 1005.3
20260506002131 75 321 0.0 0.0 0.07 0.32 0.32 98 1005.4
20260505235131 84 310 0.9 0.9 0.00 0.00 0.00 76 1004.5
20260505232131 86 189 2.6 4.3 0.00 0.00 0.00 73 1004.3
20260505225131 88 204 3.5 5.2 0.00 0.00 0.00 69 1003.9
20260505222128 89 151 2.6 4.3 0.00 0.00 0.00 66 1003.7
20260505215125 90 186 2.6 2.6 0.00 0.00 0.00 65 1004.0
20260505212124 91 163 2.6 5.2 0.00 0.00 0.00 62 1004.2
20260505205125 92 154 1.7 4.3 0.00 0.00 0.00 57 1004.6
20260505202122 90 146 0.9 1.7 0.00 0.00 0.00 60 1004.9
20260505195123 89 289 1.7 1.7 0.00 0.00 0.00 65 1005.3
20260505192123 86 182 1.7 2.6 0.00 0.00 0.00 70 1005.1
20260505185120 86 199 1.7 1.7 0.00 0.00 0.00 72 1005.5
20260505182118 83 109 4.3 6.1 0.00 0.00 0.00 74 1005.7
20260505175115 84 134 2.6 2.6 0.00 0.00 0.00 73 1006.0
20260505172114 83 195 4.3 5.2 0.00 0.00 0.00 74 1005.9
20260505165114 80 180 1.7 2.6 0.00 0.00 0.00 77 1005.9
20260505162109 81 123 2.6 5.2 0.00 0.00 0.00 75 1005.8
20260505152104 78 200 2.6 2.6 0.00 0.00 0.00 80 1006.0